Location: Fauquembergues
(50.6005°N, 2.0987°E)
Time: 04:37:56
(UTC+00:00)

Gbstr 26 Del rocket - Pass Details

Date: 14 July 2020
Orbit: 492 x 1264 km, 51.8° (Epoch: 06 August)

Event Time Altitude Azimuth Distance (km) Brightness Sun altitude
Rises 01:36:46 0° 286° (WNW) 2,631 6.2 -14.5°
Reaches altitude 10° 01:38:49 10° 284° (WNW) 1,792 5.3 -14.4°
Maximum altitude 01:42:49 75° 201° (SSW) 616 2.8 -14.1°
Drops below altitude 10° 01:47:33 10° 115° (ESE) 2,115 5.8 -13.8°
Sets 01:50:10 0° 114° (ESE) 3,157 6.7 -13.6°
